Lid_Strength_Index
11 12 12 12 12 12 12 12 12 12 12 12 13 13 13 13 12 12 12 10 10 9 9 9 9 8 9 8 8 7 8 9 11 10 9 8 9 9 8 7 7 7 8
12 12 12 12 12 12 12 12 12 13 13 13 13 13 13 13 12 12 11 11 10 10 9 9 9 8 9 8 8 9 9 9 10 11 10 10 9 8 8 8 7 7 7
12 12 11 11 11 12 12 12 13 13 13 13 13 13 13 12 12 11 10 10 10 9 9 9 9 9 9 8 9 9 9 9 9 9 10 9 9 8 9 8 8 8 7
11 11 12 11 11 12 12 13 13 12 13 13 13 13 12 12 11 11 11 10 10 9 9 9 9 9 9 9 10 10 10 10 9 9 10 10 10 9 9 10 11 10 9
11 11 11 11 11 12 12 12 12 12 13 13 12 12 12 11 11 11 10 10 10 10 9 9 9 9 10 10 10 10 9 10 10 10 11 11 11 10 11 10 10 10 9
11 11 11 11 11 12 12 13 13 13 12 11 12 12 12 11 9 9 9 10 10 10 10 9 9 10 9 9 9 9 8 9 10 10 11 11 10 10 10 10 10 11 11
11 10 11 11 11 12 12 13 13 13 12 12 12 12 12 12 10 9 9 10 10 10 10 10 10 9 10 10 10 9 8 8 8 9 10 10 10 10 11 12 11 10 10
11 11 11 12 12 13 13 13 13 12 12 12 12 12 12 11 10 10 10 10 10 10 10 10 10 10 10 11 10 10 10 9 9 9 9 10 10 12 12 12 13 13 11
12 12 12 12 13 13 13 13 12 12 12 12 12 11 12 12 10 10 10 10 11 11 11 10 10 10 10 10 10 11 11 10 8 8 9 11 12 12 13 14 14 14 12
11 11 11 12 12 13 13 12 11 12 12 11 11 11 11 11 10 10 10 11 11 11 11 11 11 11 9 10 11 11 11 10 11 12 13 13 14 15 15 15 16 16 11
10 11 12 12 12 12 12 11 11 11 11 11 12 13 12 12 12 9 9 11 11 11 11 11 11 10 9 10 10 12 11 11 12 13 14 15 15 15 16 16 17 17 15
10 11 12 12 12 12 13 11 11 11 12 14 15 15 14 12 11 10 9 9 9 11 11 11 11 9 9 10 12 11 11 12 13 15 15 16 16 17 17 17 18 18 18
11 12 12 12 13 12 12 12 11 11 13 16 14 15 15 14 13 9 9 9 9 11 10 10 10 10 10 11 12 12 13 14 14 15 16 16 16 16 16 17 18 18 19
10 12 13 12 13 12 12 12 13 13 15 15 15 15 16 16 15 15 14 13 11 11 10 10 11 10 10 11 14 14 14 14 15 16 16 16 16 17 19 19 20 19 20
11 12 12 12 12 13 13 12 12 14 13 16 17 17 19 18 16 12 13 11 11 10 10 11 13 14 13 14 15 15 15 15 15 15 19 21 23 21 20 21 21 21 22
11 11 11 12 12 12 12 14 10 10 10 9 8 12 14 10 9 9 9 9 9 10 11 13 13 14 13 15 16 16 16 16 16 17 18 20 25 24 23 21 21 22 23
11 11 11 12 12 13 14 14 15 13 9 7 7 8 8 9 8 9 8 9 9 10 13 13 13 13 13 15 19 16 16 17 18 22 24 25 25 26 25 24 23 23 26
11 12 11 11 11 12 13 14 15 16 17 16 11 9 8 8 8 8 8 9 11 12 13 13 13 14 13 17 19 17 17 17 23 22 23 27 28 28 27 27 27 28 30
12 12 12 12 12 14 15 17 17 19 19 19 20 15 14 9 8 8 8 14 11 12 13 13 12 13 14 20 19 16 17 21 24 24 24 27 29 28 30 30 28 29 31
14 12 12 12 13 13 15 16 18 20 20 21 21 19 16 19 19 21 21 19 12 12 13 17 18 21 20 19 20 18 20 25 26 28 30 28 30 28 28 30 32 30 34
14 13 13 15 14 13 15 15 17 20 20 21 17 18 11 13 15 17 17 20 16 15 17 18 19 20 20 19 18 19 21 24 26 28 28 29 29 30 31 30 31 33 31
15 13 12 12 13 14 15 17 18 17 18 19 17 17 9 16 18 15 14 15 16 15 16 17 18 18 17 16 16 18 19 21 25 28 28 29 29 30 32 31 31 35 36
14 15 15 14 14 16 19 19 18 18 16 15 12 11 9 11 13 13 12 14 17 16 18 17 17 19 18 15 14 16 18 19 22 25 27 28 29 30 29 29 30 34 36
17 18 20 19 19 21 21 19 16 11 11 11 12 15 10 9 9 9 9 13 17 17 18 17 16 17 17 15 14 16 17 19 21 24 25 26 29 31 31 31 31 35 32
20 19 20 20 20 18 18 18 14 11 12 16 16 17 16 14 11 9 8 9 12 18 18 18 18 17 16 15 15 17 19 19 22 24 25 27 28 30 29 30 30 33 34
24 23 23 22 19 16 15 13 13 14 16 18 17 16 16 13 10 9 8 8 11 13 18 18 18 17 16 16 16 18 18 20 23 24 26 27 28 30 30 32 32 30 32